Zurück zum Katalog

YAMAL 402

AktivKommunikationGEO
NORAD 39022·PAYLOAD·🇷🇺 Russia

Gestartet Dec 8, 2012 von Baikonur Cosmodrome

Loading…

TLE

AktuellSource: Space-Track

Epoche: Sep 14, 2026, 14:03 UTC

1 39022U 12070A   26257.58602106  .00000078  00000-0  00000-0 0  9991
2 39022   1.4883  82.8984 0003547  86.6222  89.9121  1.00272639 50292

Verfolge YAMAL 402 in Echtzeit mit AllMySat

Download on the App Store